User: anonymous   Login
Location: Caltech
(34.1382°N, 118.1253°W)
Time: 07:50:10
(UTC-07:00)
Language:

Courier 1B - Orbit

View from above orbital plane
View from above orbital plane
View from above satellite
View from above satellite

Ground track
Ground track

The orbit data is extracted from the following two-line orbital elements,

1 00058U 60013A   15245.18002152  .00000102  00000-0  27785-4 0  9995
2 00058  28.3294 334.0769 0165064 338.8132  20.5640 13.46295684703101
Epoch (UTC): 02 September 2015 04:19:13
Eccentricity: 0.0165064
inclination: 28.3294°
perigee height: 963 km
apogee height: 1209 km
right ascension of ascending node: 334.0769°
argument of perigee: 338.8132°
revolutions per day: 13.46295684
mean anomaly at epoch: 20.5640°
orbit number at epoch: 70310

The dashed part of the orbit path shows where the satellite is in the earth's shadow,  

DLR